Regional Weather Roundup
Issued by NWS Albany, NY

Home | Current Version | Previous Version | Graphics & Text | Print | Product List | Glossary Off
Versions: 1 2 3 4 5 6 7 8 9 10 11 12 13 14 15 16 17 18 19 20 21 22 23 24 25 26 27 28 29 30 31 32 33 34 35 36 37 38 39 40 41 42 43 44 45 46 47 48 49 50

000
ASUS41 KALY 272210
RWRALY

NEW YORK STATE HOURLY WEATHER ROUNDUP
NATIONAL WEATHER SERVICE ALBANY NY
600 PM EDT FRI MAR 27 2015

NOTE: "FAIR" INDICATES FEW OR NO CLOUDS BELOW 12,000 FEET WITH NO
SIGNIFICANT WEATHER AND/OR NO OBSTRUCTIONS TO VISIBILITY.

NYZ032-033-038>043-046>054-057>066-NYZ062>081-272300-
EAST


CITY           SKY/WX    TMP DP  RH WIND       PRES   REMARKS
ALBANY         PTSUNNY   43  26  51 W13       29.75R
GLENS FALLS    CLOUDY    39  32  76 NE7       29.74R WCI  34
POUGHKEEPSIE   CLOUDY    44  27  51 NW8       29.75R
NEWBURGH       CLOUDY    43  28  56 N7        29.74R
MONTGOMERY     CLOUDY    43  24  47 NW7       29.73R
WHITE PLAINS   CLOUDY    44  30  57 NW9       29.71R
ISLIP          CLOUDY    45  32  60 N8        29.70R
NEW YORK CITY  CLOUDY    46  30  53 NW9       29.72S
CENTRAL PARK   CLOUDY    45  28  51 VRB6      29.75R
$$

NYZ005>009-017-018-044>046-055-056-272300-
CENTRAL


CITY           SKY/WX    TMP DP  RH WIND       PRES   REMARKS
FULTON         CLOUDY    28  21  75 N13       29.86R WCI  17
SYRACUSE       PTSUNNY   33  24  69 W14       29.84R WCI  23
ROME           PTSUNNY   34  24  67 NW13      29.83R WCI  25
ELMIRA         CLOUDY    36  24  62 NW7       29.80R WCI  30
BINGHAMTON     FLURRIES  32  24  72 NW12      29.76R WCI  23
MONTICELLO     CLOUDY    36  25  64 NW12      29.73S WCI  27
$$

NYZ026>034-041>043-272300-
NORTH


CITY           SKY/WX    TMP DP  RH WIND       PRES   REMARKS
WATERTOWN      FLURRIES  24  19  81 N12       29.89R WCI  13
FORT DRUM      NOT AVBL
MASSENA        LGT SNOW  25  23  92 W10       29.88R FOG     WCI  15
SARANAC LAKE   LGT SNOW  28  25  88 NW7       29.71R FOG     WCI  21
PLATTSBURGH    CLOUDY    33  27  78 NE9       29.80R WCI  25
$$

NYZ001>004-010>016-019>021-272300-
WEST


CITY           SKY/WX    TMP DP  RH WIND       PRES   REMARKS
NIAGARA FALLS  CLOUDY    25  16  68 N12       29.92R WCI  14
BUFFALO        FLURRIES  26  17  68 NW9       29.91R WCI  17
DUNKIRK        LGT SNOW  24  22  91 NW14      29.94R VSB 3/4 WCI  12
JAMESTOWN      PTSUNNY   25  18  74 NW9       29.84R WCI  15
WELLSVILLE     FLURRIES  27  21  78 N12       29.79R WCI  17
ROCHESTER      FLURRIES  29  21  72 NW10      29.89R WCI  20
PENN YAN       LGT SNOW  31  25  78 NW8       29.84R WCI  23
$$

             KEY
       WCI = WIND CHILL INDEX
       VSB = VISIBILITY
       HX  = HEAT INDEX
$$



USA.gov is the U.S. government's official web portal to all federal, state and local government web resources and services.